| time (UTC) | temp F | wind direction | speed MPH | gust MPH | rain 1hr in | rain 24hr in | rain mn in | humidity % | barometer mb |
| 20260508200018 | 66 | 0 | 0.0 | 0.0 | 0.00 | 0.02 | 0.00 | 71 | 1015.5 |
| 20260508195517 | 66 | 219 | 0.0 | 0.0 | 0.00 | 0.02 | 0.00 | 69 | 1015.4 |
| 20260508195017 | 66 | 260 | 0.0 | 2.0 | 0.00 | 0.02 | 0.00 | 70 | 1015.6 |
| 20260508194517 | 67 | 257 | 0.0 | 2.0 | 0.00 | 0.02 | 0.00 | 71 | 1015.6 |
| 20260508194017 | 67 | 256 | 1.0 | 2.0 | 0.00 | 0.02 | 0.00 | 70 | 1015.7 |
| 20260508193522 | 67 | 257 | 1.0 | 3.0 | 0.00 | 0.02 | 0.00 | 68 | 1015.7 |
| 20260508193017 | 67 | 313 | 2.0 | 3.0 | 0.00 | 0.02 | 0.00 | 67 | 1015.8 |
| 20260508192517 | 67 | 78 | 0.0 | 5.0 | 0.00 | 0.02 | 0.00 | 66 | 1015.7 |
| 20260508192022 | 67 | 0 | 2.0 | 0.0 | 0.00 | 0.02 | 0.00 | 66 | 1015.8 |
| 20260508191517 | 67 | 0 | 0.0 | 0.0 | 0.00 | 0.02 | 0.00 | 66 | 1015.6 |
| 20260508191017 | 67 | 0 | 0.0 | 0.0 | 0.00 | 0.02 | 0.00 | 64 | 1015.6 |
| 20260508190522 | 67 | 0 | 0.0 | 0.0 | 0.00 | 0.02 | 0.00 | 64 | 1015.6 |
| 20260508190017 | 67 | 90 | 0.0 | 6.0 | 0.00 | 0.02 | 0.00 | 63 | 1015.3 |
| 20260508185517 | 67 | 90 | 4.0 | 6.0 | 0.00 | 0.02 | 0.00 | 62 | 1015.3 |
| 20260508185017 | 67 | 90 | 0.0 | 5.0 | 0.00 | 0.02 | 0.00 | 62 | 1015.7 |
| 20260508184517 | 67 | 95 | 2.0 | 4.0 | 0.00 | 0.02 | 0.00 | 62 | 1015.7 |
| 20260508184017 | 67 | 88 | 1.0 | 5.0 | 0.00 | 0.02 | 0.00 | 62 | 1016.0 |
| 20260508183518 | 67 | 89 | 1.0 | 6.0 | 0.00 | 0.02 | 0.00 | 61 | 1015.9 |
| 20260508183018 | 67 | 31 | 3.0 | 4.0 | 0.00 | 0.02 | 0.00 | 60 | 1016.1 |
| 20260508182517 | 67 | 73 | 0.0 | 2.0 | 0.00 | 0.02 | 0.00 | 60 | 1016.3 |
| 20260508182022 | 67 | 4 | 0.0 | 5.0 | 0.00 | 0.02 | 0.00 | 59 | 1016.4 |
| 20260508181517 | 67 | 354 | 2.0 | 3.0 | 0.00 | 0.02 | 0.00 | 61 | 1016.3 |
| 20260508181018 | 67 | 0 | 0.0 | 0.0 | 0.00 | 0.02 | 0.00 | 59 | 1016.5 |
| 20260508180517 | 68 | 268 | 0.0 | 4.0 | 0.00 | 0.02 | 0.00 | 59 | 1016.6 |
| 20260508180017 | 68 | 282 | 1.0 | 4.0 | 0.00 | 0.02 | 0.00 | 58 | 1016.6 |
| 20260508175517 | 68 | 253 | 0.0 | 5.0 | 0.00 | 0.02 | 0.00 | 59 | 1016.8 |
| 20260508175017 | 68 | 263 | 1.0 | 6.0 | 0.00 | 0.02 | 0.00 | 57 | 1016.9 |
| 20260508174517 | 68 | 58 | 0.0 | 1.0 | 0.00 | 0.02 | 0.00 | 56 | 1017.1 |
| 20260508174017 | 68 | 0 | 0.0 | 0.0 | 0.00 | 0.02 | 0.00 | 57 | 1017.0 |
| 20260508173522 | 69 | 93 | 0.0 | 4.0 | 0.00 | 0.02 | 0.00 | 57 | 1016.9 |
| 20260508173017 | 69 | 71 | 0.0 | 3.0 | 0.00 | 0.02 | 0.00 | 56 | 1016.9 |
| 20260508172517 | 69 | 54 | 1.0 | 3.0 | 0.00 | 0.02 | 0.00 | 56 | 1016.9 |
| 20260508172018 | 69 | 20 | 1.0 | 1.0 | 0.00 | 0.02 | 0.00 | 56 | 1017.0 |
| 20260508171518 | 69 | 90 | 0.0 | 7.0 | 0.00 | 0.02 | 0.00 | 55 | 1017.2 |
| 20260508171017 | 69 | 90 | 0.0 | 6.0 | 0.00 | 0.02 | 0.00 | 55 | 1017.4 |
| 20260508170517 | 69 | 253 | 1.0 | 5.0 | 0.00 | 0.02 | 0.00 | 56 | 1017.3 |
| 20260508170017 | 68 | 92 | 4.0 | 5.0 | 0.00 | 0.02 | 0.00 | 58 | 1017.5 |
| 20260508165517 | 68 | 65 | 1.0 | 3.0 | 0.00 | 0.02 | 0.00 | 60 | 1017.6 |
| 20260508165018 | 68 | 147 | 0.0 | 3.0 | 0.00 | 0.02 | 0.00 | 57 | 1017.6 |
| 20260508164517 | 68 | 99 | 0.0 | 5.0 | 0.00 | 0.02 | 0.00 | 56 | 1017.8 |
| 20260508164017 | 69 | 66 | 2.0 | 8.0 | 0.00 | 0.02 | 0.00 | 56 | 1017.8 |
| 20260508163517 | 69 | 99 | 0.0 | 6.0 | 0.00 | 0.02 | 0.00 | 58 | 1017.8 |
| 20260508163017 | 69 | 120 | 1.0 | 6.0 | 0.00 | 0.02 | 0.00 | 59 | 1017.8 |
| 20260508162517 | 68 | 73 | 2.0 | 9.0 | 0.00 | 0.02 | 0.00 | 58 | 1018.0 |
| 20260508162017 | 68 | 90 | 3.0 | 7.0 | 0.00 | 0.02 | 0.00 | 59 | 1018.1 |
| 20260508161517 | 68 | 55 | 5.0 | 6.0 | 0.00 | 0.02 | 0.00 | 60 | 1018.1 |
| 20260508161017 | 67 | 112 | 3.0 | 5.0 | 0.00 | 0.02 | 0.00 | 60 | 1018.2 |
| 20260508160518 | 67 | 66 | 1.0 | 8.0 | 0.00 | 0.02 | 0.00 | 61 | 1018.2 |
| 20260508160018 | 67 | 127 | 3.0 | 7.0 | 0.00 | 0.02 | 0.00 | 61 | 1018.1 |
| 20260508155517 | 66 | 78 | 4.0 | 7.0 | 0.00 | 0.02 | 0.00 | 61 | 1018.3 |
| 20260508155017 | 66 | 66 | 6.0 | 9.0 | 0.00 | 0.02 | 0.00 | 61 | 1018.5 |
| 20260508154517 | 66 | 93 | 2.0 | 7.0 | 0.00 | 0.02 | 0.00 | 62 | 1018.5 |
| 20260508154018 | 66 | 104 | 2.0 | 6.0 | 0.00 | 0.02 | 0.00 | 62 | 1018.4 |
| 20260508153517 | 66 | 68 | 3.0 | 8.0 | 0.00 | 0.02 | 0.00 | 62 | 1018.4 |
| 20260508153017 | 66 | 88 | 1.0 | 5.0 | 0.00 | 0.02 | 0.00 | 62 | 1018.4 |
| 20260508152517 | 65 | 78 | 2.0 | 7.0 | 0.00 | 0.02 | 0.00 | 62 | 1018.3 |
| 20260508152017 | 65 | 99 | 3.0 | 9.0 | 0.00 | 0.02 | 0.00 | 63 | 1018.4 |
| 20260508151517 | 65 | 96 | 3.0 | 7.0 | 0.00 | 0.02 | 0.00 | 64 | 1018.4 |
| 20260508151017 | 65 | 80 | 5.0 | 9.0 | 0.00 | 0.02 | 0.00 | 66 | 1018.4 |
| 20260508150517 | 64 | 99 | 4.0 | 6.0 | 0.00 | 0.02 | 0.00 | 67 | 1018.6 |
| 20260508150017 | 64 | 140 | 4.0 | 7.0 | 0.00 | 0.02 | 0.00 | 68 | 1018.6 |
| 20260508145517 | 64 | 85 | 2.0 | 5.0 | 0.00 | 0.02 | 0.00 | 69 | 1018.5 |
| 20260508145017 | 64 | 97 | 1.0 | 5.0 | 0.00 | 0.02 | 0.00 | 69 | 1018.6 |
| 20260508144517 | 64 | 85 | 2.0 | 4.0 | 0.00 | 0.02 | 0.00 | 69 | 1018.7 |
| 20260508144017 | 64 | 106 | 4.0 | 6.0 | 0.00 | 0.02 | 0.00 | 69 | 1018.7 |
| 20260508143517 | 63 | 64 | 2.0 | 6.0 | 0.00 | 0.02 | 0.00 | 69 | 1018.7 |
| 20260508143017 | 63 | 79 | 5.0 | 7.0 | 0.00 | 0.02 | 0.00 | 69 | 1018.7 |
| 20260508142517 | 63 | 90 | 0.0 | 8.0 | 0.00 | 0.02 | 0.00 | 69 | 1018.8 |
| 20260508142017 | 63 | 73 | 3.0 | 7.0 | 0.00 | 0.02 | 0.00 | 70 | 1018.8 |
| 20260508141517 | 63 | 112 | 1.0 | 5.0 | 0.00 | 0.02 | 0.00 | 71 | 1018.9 |
| 20260508141017 | 63 | 66 | 2.0 | 5.0 | 0.00 | 0.02 | 0.00 | 72 | 1018.9 |
| 20260508140517 | 62 | 124 | 0.0 | 7.0 | 0.00 | 0.02 | 0.00 | 72 | 1018.9 |
| 20260508140017 | 62 | 85 | 3.0 | 7.0 | 0.00 | 0.02 | 0.00 | 73 | 1019.1 |
| 20260508135517 | 62 | 23 | 2.0 | 5.0 | 0.00 | 0.02 | 0.00 | 73 | 1019.2 |
| 20260508135017 | 61 | 8 | 3.0 | 3.0 | 0.00 | 0.02 | 0.00 | 75 | 1019.2 |
| 20260508134517 | 61 | 68 | 1.0 | 5.0 | 0.00 | 0.02 | 0.00 | 76 | 1019.3 |
| 20260508134017 | 61 | 68 | 2.0 | 4.0 | 0.00 | 0.02 | 0.00 | 76 | 1019.2 |
| 20260508133517 | 60 | 80 | 2.0 | 5.0 | 0.00 | 0.02 | 0.00 | 77 | 1019.2 |
| 20260508133017 | 60 | 96 | 2.0 | 3.0 | 0.00 | 0.02 | 0.00 | 78 | 1019.2 |
| 20260508132518 | 60 | 85 | 2.0 | 5.0 | 0.00 | 0.02 | 0.00 | 78 | 1019.2 |
| 20260508132017 | 60 | 86 | 1.0 | 5.0 | 0.00 | 0.02 | 0.00 | 79 | 1019.1 |
| 20260508131517 | 60 | 107 | 1.0 | 8.0 | 0.00 | 0.02 | 0.00 | 80 | 1018.9 |
| 20260508131017 | 59 | 100 | 3.0 | 5.0 | 0.00 | 0.02 | 0.00 | 80 | 1019.0 |
| 20260508130517 | 59 | 95 | 1.0 | 11.0 | 0.00 | 0.02 | 0.00 | 81 | 1018.8 |
| 20260508130017 | 59 | 168 | 3.0 | 5.0 | 0.00 | 0.02 | 0.00 | 82 | 1018.8 |
| 20260508125517 | 58 | 97 | 3.0 | 8.0 | 0.00 | 0.02 | 0.00 | 82 | 1018.9 |
| 20260508125017 | 58 | 123 | 4.0 | 8.0 | 0.00 | 0.02 | 0.00 | 83 | 1018.7 |
| 20260508124517 | 58 | 75 | 2.0 | 6.0 | 0.00 | 0.02 | 0.00 | 84 | 1018.7 |
| 20260508124017 | 58 | 88 | 0.0 | 7.0 | 0.00 | 0.02 | 0.00 | 84 | 1018.7 |
| 20260508123517 | 58 | 126 | 5.0 | 6.0 | 0.00 | 0.02 | 0.00 | 85 | 1018.7 |
| 20260508123017 | 57 | 88 | 2.0 | 7.0 | 0.00 | 0.02 | 0.00 | 86 | 1018.7 |
| 20260508122517 | 57 | 99 | 0.0 | 5.0 | 0.00 | 0.02 | 0.00 | 86 | 1018.6 |
| 20260508122017 | 57 | 106 | 3.0 | 7.0 | 0.00 | 0.02 | 0.00 | 87 | 1018.5 |
| 20260508121518 | 57 | 131 | 3.0 | 6.0 | 0.00 | 0.02 | 0.00 | 87 | 1018.4 |
| 20260508121017 | 57 | 90 | 0.0 | 6.0 | 0.00 | 0.02 | 0.00 | 88 | 1018.4 |
| 20260508120517 | 57 | 100 | 4.0 | 4.0 | 0.00 | 0.02 | 0.00 | 88 | 1018.4 |
| 20260508120017 | 57 | 100 | 3.0 | 4.0 | 0.00 | 0.02 | 0.00 | 89 | 1018.3 |
| 20260508115517 | 56 | 89 | 1.0 | 4.0 | 0.00 | 0.02 | 0.00 | 89 | 1018.2 |
| 20260508115018 | 56 | 100 | 0.0 | 4.0 | 0.00 | 0.02 | 0.00 | 89 | 1018.2 |
| 20260508114517 | 56 | 97 | 2.0 | 4.0 | 0.00 | 0.02 | 0.00 | 89 | 1018.1 |
| 20260508114016 | 56 | 66 | 0.0 | 2.0 | 0.00 | 0.02 | 0.00 | 90 | 1018.0 |
| 20260508113517 | 56 | 93 | 2.0 | 2.0 | 0.00 | 0.02 | 0.00 | 90 | 1017.9 |
| 20260508113017 | 56 | 93 | 1.0 | 4.0 | 0.00 | 0.02 | 0.00 | 90 | 1017.9 |
| 20260508112517 | 56 | 114 | 0.0 | 3.0 | 0.00 | 0.02 | 0.00 | 90 | 1017.8 |
| 20260508112017 | 56 | 83 | 0.0 | 5.0 | 0.00 | 0.02 | 0.00 | 90 | 1017.6 |
| 20260508111517 | 56 | 99 | 3.0 | 5.0 | 0.00 | 0.02 | 0.00 | 91 | 1017.5 |
| 20260508111017 | 56 | 0 | 0.0 | 0.0 | 0.00 | 0.02 | 0.00 | 91 | 1017.7 |
| 20260508110517 | 56 | 133 | 0.0 | 3.0 | 0.00 | 0.02 | 0.00 | 91 | 1017.5 |
| 20260508110017 | 56 | 134 | 0.0 | 2.0 | 0.00 | 0.02 | 0.00 | 91 | 1017.5 |
| 20260508105517 | 56 | 133 | 1.0 | 2.0 | 0.00 | 0.02 | 0.00 | 91 | 1017.5 |
| 20260508105017 | 56 | 130 | 0.0 | 2.0 | 0.00 | 0.02 | 0.00 | 91 | 1017.4 |
| 20260508104517 | 56 | 0 | 0.0 | 0.0 | 0.00 | 0.02 | 0.00 | 90 | 1017.4 |
| 20260508104018 | 56 | 0 | 0.0 | 0.0 | 0.00 | 0.02 | 0.00 | 90 | 1017.4 |
| 20260508103517 | 56 | 0 | 0.0 | 0.0 | 0.00 | 0.02 | 0.00 | 90 | 1017.2 |
| 20260508103017 | 56 | 0 | 0.0 | 0.0 | 0.00 | 0.02 | 0.00 | 89 | 1017.2 |
| 20260508102517 | 57 | 0 | 0.0 | 0.0 | 0.00 | 0.02 | 0.00 | 89 | 1017.2 |
| 20260508102017 | 57 | 0 | 0.0 | 0.0 | 0.00 | 0.02 | 0.00 | 89 | 1017.1 |
| 20260508101517 | 57 | 0 | 0.0 | 0.0 | 0.00 | 0.02 | 0.00 | 89 | 1017.2 |
| 20260508101018 | 57 | 0 | 0.0 | 0.0 | 0.00 | 0.02 | 0.00 | 88 | 1017.2 |
| 20260508100517 | 57 | 0 | 0.0 | 0.0 | 0.00 | 0.02 | 0.00 | 88 | 1017.1 |
| 20260508100017 | 57 | 0 | 0.0 | 0.0 | 0.00 | 0.02 | 0.00 | 88 | 1017.0 |
| 20260508095517 | 57 | 0 | 0.0 | 0.0 | 0.00 | 0.02 | 0.00 | 87 | 1016.9 |
| 20260508095017 | 57 | 0 | 0.0 | 0.0 | 0.00 | 0.02 | 0.00 | 87 | 1016.6 |
| 20260508094518 | 57 | 0 | 0.0 | 0.0 | 0.00 | 0.02 | 0.00 | 86 | 1016.5 |
| 20260508094017 | 58 | 117 | 0.0 | 1.0 | 0.00 | 0.02 | 0.00 | 86 | 1016.3 |
| 20260508093517 | 58 | 0 | 0.0 | 0.0 | 0.00 | 0.02 | 0.00 | 85 | 1016.2 |
| 20260508093018 | 58 | 0 | 0.0 | 0.0 | 0.00 | 0.02 | 0.00 | 85 | 1016.1 |
| 20260508092517 | 58 | 138 | 0.0 | 1.0 | 0.00 | 0.02 | 0.00 | 84 | 1015.9 |
| 20260508092018 | 58 | 0 | 0.0 | 0.0 | 0.00 | 0.02 | 0.00 | 84 | 1015.8 |
| 20260508091517 | 58 | 0 | 0.0 | 0.0 | 0.00 | 0.02 | 0.00 | 83 | 1015.7 |
| 20260508091018 | 58 | 130 | 0.0 | 2.0 | 0.00 | 0.02 | 0.00 | 83 | 1015.8 |
| 20260508090517 | 59 | 134 | 0.0 | 3.0 | 0.00 | 0.02 | 0.00 | 83 | 1015.7 |
| 20260508090017 | 59 | 138 | 0.0 | 3.0 | 0.00 | 0.02 | 0.00 | 82 | 1015.9 |
| 20260508085517 | 59 | 119 | 2.0 | 3.0 | 0.00 | 0.02 | 0.00 | 82 | 1015.7 |
| 20260508085017 | 58 | 107 | 0.0 | 5.0 | 0.00 | 0.02 | 0.00 | 82 | 1015.7 |
| 20260508084517 | 59 | 140 | 1.0 | 2.0 | 0.00 | 0.02 | 0.00 | 83 | 1015.5 |
| 20260508084017 | 58 | 120 | 0.0 | 4.0 | 0.00 | 0.02 | 0.00 | 83 | 1015.6 |
| 20260508083517 | 58 | 89 | 2.0 | 4.0 | 0.00 | 0.02 | 0.00 | 83 | 1015.4 |
| 20260508083017 | 58 | 121 | 3.0 | 3.0 | 0.00 | 0.02 | 0.00 | 84 | 1015.5 |
| 20260508082517 | 58 | 119 | 0.0 | 3.0 | 0.00 | 0.02 | 0.00 | 84 | 1015.7 |
| 20260508082017 | 58 | 97 | 1.0 | 5.0 | 0.00 | 0.02 | 0.00 | 85 | 1015.6 |
| 20260508081517 | 58 | 123 | 0.0 | 4.0 | 0.00 | 0.02 | 0.00 | 86 | 1015.5 |
| 20260508081017 | 58 | 124 | 2.0 | 3.0 | 0.00 | 0.02 | 0.00 | 86 | 1015.4 |
| 20260508080517 | 59 | 0 | 0.0 | 0.0 | 0.00 | 0.02 | 0.00 | 86 | 1015.5 |
| 20260508080018 | 59 | 0 | 0.0 | 0.0 | 0.00 | 0.02 | 0.00 | 85 | 1015.5 |
| 20260508075517 | 59 | 0 | 0.0 | 0.0 | 0.00 | 0.02 | 0.00 | 84 | 1015.8 |
| 20260508075018 | 59 | 0 | 0.0 | 0.0 | 0.00 | 0.02 | 0.00 | 84 | 1015.9 |
| 20260508074517 | 60 | 0 | 0.0 | 0.0 | 0.00 | 0.02 | 0.00 | 83 | 1015.9 |
| 20260508074017 | 60 | 0 | 0.0 | 0.0 | 0.00 | 0.02 | 0.00 | 82 | 1015.9 |
| 20260508073517 | 60 | 0 | 0.0 | 0.0 | 0.00 | 0.02 | 0.00 | 81 | 1015.9 |
| 20260508073018 | 60 | 0 | 0.0 | 0.0 | 0.00 | 0.02 | 0.00 | 81 | 1016.0 |
| 20260508072517 | 60 | 0 | 0.0 | 0.0 | 0.00 | 0.02 | 0.00 | 80 | 1016.0 |
| 20260508072017 | 61 | 336 | 0.0 | 1.0 | 0.00 | 0.02 | 0.00 | 80 | 1016.0 |
| 20260508071517 | 61 | 346 | 1.0 | 6.0 | 0.00 | 0.02 | 0.00 | 80 | 1016.1 |
| 20260508071017 | 61 | 37 | 0.0 | 4.0 | 0.00 | 0.02 | 0.00 | 80 | 1016.0 |
| 20260508070517 | 61 | 3 | 1.0 | 6.0 | 0.00 | 0.02 | 0.00 | 80 | 1016.0 |
| 20260508070017 | 61 | 35 | 1.0 | 6.0 | 0.00 | 0.02 | 0.00 | 80 | 1016.0 |
| 20260508065517 | 61 | 179 | 1.0 | 3.0 | 0.00 | 0.02 | 0.00 | 80 | 1015.9 |
| 20260508065017 | 61 | 40 | 0.0 | 5.0 | 0.00 | 0.02 | 0.00 | 81 | 1016.0 |
| 20260508064517 | 61 | 7 | 1.0 | 5.0 | 0.00 | 0.02 | 0.00 | 81 | 1016.1 |
| 20260508064017 | 60 | 333 | 1.0 | 6.0 | 0.00 | 0.02 | 0.00 | 82 | 1016.1 |
| 20260508063517 | 60 | 309 | 0.0 | 6.0 | 0.00 | 0.02 | 0.00 | 83 | 1016.1 |
| 20260508063017 | 60 | 20 | 0.0 | 4.0 | 0.00 | 0.02 | 0.00 | 84 | 1016.1 |
| 20260508062517 | 60 | 347 | 1.0 | 8.0 | 0.00 | 0.02 | 0.00 | 85 | 1016.1 |
| 20260508062017 | 60 | 360 | 0.0 | 7.0 | 0.00 | 0.02 | 0.00 | 86 | 1016.3 |
| 20260508061518 | 60 | 48 | 2.0 | 2.0 | 0.00 | 0.02 | 0.00 | 86 | 1016.2 |
| 20260508061017 | 59 | 51 | 0.0 | 4.0 | 0.00 | 0.02 | 0.00 | 86 | 1016.3 |
| 20260508060517 | 59 | 38 | 0.0 | 3.0 | 0.00 | 0.02 | 0.00 | 87 | 1016.1 |
| 20260508060018 | 60 | 41 | 1.0 | 4.0 | 0.00 | 0.02 | 0.00 | 86 | 1016.2 |
| 20260508055517 | 59 | 47 | 1.0 | 3.0 | 0.00 | 0.02 | 0.00 | 87 | 1016.3 |
| 20260508055017 | 59 | 40 | 0.0 | 5.0 | 0.00 | 0.02 | 0.00 | 87 | 1016.4 |
| 20260508054517 | 59 | 45 | 0.0 | 3.0 | 0.00 | 0.02 | 0.00 | 87 | 1016.5 |
| 20260508054017 | 60 | 42 | 0.0 | 3.0 | 0.00 | 0.02 | 0.00 | 87 | 1016.5 |
| 20260508053517 | 60 | 40 | 0.0 | 2.0 | 0.00 | 0.02 | 0.00 | 87 | 1016.8 |
| 20260508053017 | 60 | 55 | 2.0 | 1.0 | 0.00 | 0.02 | 0.00 | 87 | 1016.8 |
| 20260508052517 | 60 | 0 | 0.0 | 0.0 | 0.00 | 0.02 | 0.00 | 87 | 1016.8 |
| 20260508052017 | 60 | 0 | 0.0 | 0.0 | 0.00 | 0.02 | 0.00 | 86 | 1016.8 |
| 20260508051518 | 60 | 0 | 0.0 | 0.0 | 0.00 | 0.02 | 0.00 | 86 | 1016.8 |
| 20260508051017 | 60 | 0 | 0.0 | 0.0 | 0.00 | 0.02 | 0.00 | 86 | 1016.8 |
| 20260508050517 | 60 | 38 | 0.0 | 1.0 | 0.00 | 0.02 | 0.00 | 85 | 1016.8 |
| 20260508050017 | 60 | 0 | 0.0 | 0.0 | 0.00 | 0.02 | 0.00 | 85 | 1016.9 |
| 20260508045517 | 60 | 0 | 0.0 | 0.0 | 0.00 | 0.00 | 0.02 | 85 | 1016.9 |
| 20260508045017 | 61 | 0 | 0.0 | 0.0 | 0.00 | 0.00 | 0.02 | 85 | 1016.8 |
| 20260508044518 | 61 | 0 | 0.0 | 0.0 | 0.00 | 0.00 | 0.02 | 84 | 1016.8 |
| 20260508044017 | 61 | 0 | 0.0 | 0.0 | 0.00 | 0.00 | 0.02 | 84 | 1016.9 |
| 20260508043517 | 61 | 0 | 0.0 | 0.0 | 0.00 | 0.00 | 0.02 | 83 | 1016.8 |
| 20260508043016 | 61 | 0 | 0.0 | 0.0 | 0.00 | 0.00 | 0.02 | 83 | 1016.8 |
| 20260508042517 | 61 | 58 | 0.0 | 0.0 | 0.00 | 0.00 | 0.02 | 83 | 1017.0 |
| 20260508042017 | 61 | 30 | 0.0 | 2.0 | 0.00 | 0.00 | 0.02 | 83 | 1016.8 |
| 20260508041518 | 61 | 10 | 0.0 | 1.0 | 0.00 | 0.00 | 0.02 | 82 | 1016.9 |
| 20260508041017 | 62 | 0 | 0.0 | 0.0 | 0.00 | 0.00 | 0.02 | 82 | 1016.8 |
| 20260508040518 | 62 | 0 | 0.0 | 0.0 | 0.00 | 0.00 | 0.02 | 82 | 1016.6 |
| 20260508040017 | 62 | 0 | 0.0 | 0.0 | 0.00 | 0.00 | 0.02 | 81 | 1017.0 |
| 20260508035517 | 62 | 0 | 0.0 | 0.0 | 0.00 | 0.00 | 0.02 | 80 | 1016.8 |
| 20260508035018 | 62 | 0 | 0.0 | 0.0 | 0.00 | 0.00 | 0.02 | 80 | 1016.9 |
| 20260508034518 | 62 | 11 | 0.0 | 2.0 | 0.00 | 0.00 | 0.02 | 80 | 1016.8 |
| 20260508034018 | 63 | 85 | 0.0 | 1.0 | 0.00 | 0.00 | 0.02 | 80 | 1016.8 |
| 20260508033517 | 63 | 25 | 0.0 | 1.0 | 0.00 | 0.00 | 0.02 | 80 | 1016.8 |
| 20260508033017 | 63 | 11 | 0.0 | 1.0 | 0.00 | 0.00 | 0.02 | 79 | 1016.6 |
| 20260508032517 | 63 | 0 | 1.0 | 0.0 | 0.00 | 0.00 | 0.02 | 77 | 1016.6 |
| 20260508032016 | 63 | 10 | 0.0 | 2.0 | 0.00 | 0.00 | 0.02 | 77 | 1016.6 |
| 20260508031517 | 64 | 347 | 1.0 | 4.0 | 0.00 | 0.00 | 0.02 | 76 | 1016.8 |
| 20260508031017 | 64 | 301 | 0.0 | 3.0 | 0.00 | 0.00 | 0.02 | 75 | 1016.6 |
| 20260508030517 | 64 | 295 | 0.0 | 3.0 | 0.00 | 0.00 | 0.02 | 74 | 1016.4 |
| 20260508030017 | 64 | 294 | 1.0 | 3.0 | 0.00 | 0.00 | 0.02 | 74 | 1016.4 |
| 20260508025517 | 64 | 17 | 2.0 | 5.0 | 0.00 | 0.00 | 0.02 | 74 | 1016.4 |
| 20260508025017 | 64 | 328 | 4.0 | 5.0 | 0.00 | 0.00 | 0.02 | 73 | 1016.6 |
| 20260508024517 | 64 | 16 | 1.0 | 5.0 | 0.00 | 0.00 | 0.02 | 73 | 1016.4 |
| 20260508024017 | 64 | 14 | 1.0 | 4.0 | 0.00 | 0.00 | 0.02 | 72 | 1016.1 |
| 20260508023517 | 64 | 17 | 0.0 | 5.0 | 0.00 | 0.00 | 0.02 | 73 | 1016.1 |
| 20260508023017 | 64 | 337 | 0.0 | 7.0 | 0.00 | 0.00 | 0.02 | 73 | 1016.1 |
| 20260508022518 | 64 | 6 | 0.0 | 5.0 | 0.00 | 0.00 | 0.02 | 75 | 1016.4 |
| 20260508022017 | 64 | 340 | 3.0 | 3.0 | 0.00 | 0.00 | 0.02 | 74 | 1016.2 |
| 20260508021517 | 64 | 318 | 1.0 | 6.0 | 0.00 | 0.00 | 0.02 | 75 | 1015.9 |
| 20260508021017 | 64 | 343 | 2.0 | 5.0 | 0.00 | 0.00 | 0.02 | 76 | 1016.1 |
| 20260508020517 | 64 | 325 | 2.0 | 5.0 | 0.00 | 0.00 | 0.02 | 76 | 1016.1 |
| 20260508020017 | 64 | 337 | 0.0 | 4.0 | 0.00 | 0.00 | 0.02 | 76 | 1016.0 |
| 20260508015517 | 64 | 359 | 1.0 | 4.0 | 0.00 | 0.00 | 0.02 | 76 | 1015.9 |
| 20260508015017 | 64 | 10 | 0.0 | 4.0 | 0.00 | 0.00 | 0.02 | 76 | 1015.8 |
| 20260508014517 | 64 | 344 | 2.0 | 2.0 | 0.00 | 0.00 | 0.02 | 77 | 1016.0 |
| 20260508014017 | 64 | 8 | 0.0 | 3.0 | 0.00 | 0.00 | 0.02 | 77 | 1015.9 |
| 20260508013517 | 64 | 44 | 1.0 | 7.0 | 0.00 | 0.00 | 0.02 | 77 | 1015.9 |
| 20260508013017 | 64 | 38 | 0.0 | 3.0 | 0.00 | 0.00 | 0.02 | 79 | 1015.8 |
| 20260508012517 | 64 | 0 | 0.0 | 0.0 | 0.00 | 0.00 | 0.02 | 79 | 1015.8 |
| 20260508012017 | 64 | 0 | 0.0 | 0.0 | 0.00 | 0.00 | 0.02 | 79 | 1015.7 |
| 20260508011517 | 65 | 0 | 0.0 | 0.0 | 0.00 | 0.00 | 0.02 | 79 | 1015.8 |
| 20260508011017 | 65 | 0 | 0.0 | 0.0 | 0.00 | 0.00 | 0.02 | 78 | 1015.7 |
| 20260508010517 | 65 | 318 | 0.0 | 1.0 | 0.00 | 0.00 | 0.02 | 77 | 1015.6 |
| 20260508010017 | 66 | 356 | 0.0 | 2.0 | 0.00 | 0.00 | 0.02 | 77 | 1015.5 |
| 20260508005517 | 66 | 0 | 0.0 | 0.0 | 0.00 | 0.00 | 0.02 | 76 | 1015.5 |
| 20260508005017 | 66 | 0 | 0.0 | 0.0 | 0.00 | 0.00 | 0.02 | 75 | 1015.4 |
| 20260508004517 | 66 | 344 | 0.0 | 2.0 | 0.00 | 0.00 | 0.02 | 74 | 1015.3 |
| 20260508004017 | 67 | 0 | 0.0 | 0.0 | 0.00 | 0.00 | 0.02 | 73 | 1015.3 |
| 20260508003517 | 67 | 349 | 0.0 | 4.0 | 0.00 | 0.00 | 0.02 | 71 | 1015.4 |
| 20260508003018 | 67 | 343 | 1.0 | 4.0 | 0.00 | 0.00 | 0.02 | 70 | 1015.3 |
| 20260508002517 | 68 | 346 | 0.0 | 2.0 | 0.00 | 0.00 | 0.02 | 71 | 1015.4 |
| 20260508002017 | 68 | 56 | 1.0 | 3.0 | 0.00 | 0.00 | 0.02 | 69 | 1015.3 |
| 20260508001517 | 68 | 308 | 1.0 | 4.0 | 0.00 | 0.00 | 0.02 | 69 | 1015.4 |
| 20260508001017 | 69 | 316 | 0.0 | 4.0 | 0.00 | 0.00 | 0.02 | 67 | 1015.4 |
| 20260508000517 | 69 | 347 | 0.0 | 6.0 | 0.00 | 0.00 | 0.02 | 67 | 1015.2 |
| 20260508000017 | 69 | 350 | 3.0 | 3.0 | 0.00 | 0.00 | 0.02 | 69 | 1015.2 |
| 20260507235517 | 68 | 17 | 3.0 | 5.0 | 0.00 | 0.00 | 0.02 | 67 | 1015.1 |
| 20260507235017 | 69 | 359 | 1.0 | 6.0 | 0.00 | 0.00 | 0.02 | 66 | 1015.1 |
| 20260507234517 | 69 | 8 | 1.0 | 6.0 | 0.00 | 0.00 | 0.02 | 67 | 1014.9 |
| 20260507234017 | 69 | 18 | 2.0 | 5.0 | 0.00 | 0.00 | 0.02 | 67 | 1014.8 |
| 20260507233518 | 70 | 346 | 0.0 | 7.0 | 0.00 | 0.00 | 0.02 | 68 | 1014.9 |
| 20260507233017 | 70 | 340 | 3.0 | 7.0 | 0.00 | 0.00 | 0.02 | 67 | 1015.0 |
| 20260507232517 | 70 | 27 | 1.0 | 4.0 | 0.00 | 0.00 | 0.02 | 66 | 1014.8 |
| 20260507232017 | 70 | 326 | 1.0 | 8.0 | 0.00 | 0.00 | 0.02 | 65 | 1014.8 |
| 20260507231518 | 70 | 318 | 3.0 | 5.0 | 0.00 | 0.00 | 0.02 | 65 | 1014.7 |
| 20260507231017 | 71 | 328 | 0.0 | 6.0 | 0.00 | 0.00 | 0.02 | 66 | 1014.7 |
| 20260507230517 | 71 | 340 | 4.0 | 10.0 | 0.00 | 0.00 | 0.02 | 65 | 1014.7 |
| 20260507230017 | 72 | 323 | 3.0 | 4.0 | 0.00 | 0.00 | 0.02 | 66 | 1014.6 |
| 20260507225517 | 72 | 329 | 0.0 | 7.0 | 0.00 | 0.00 | 0.02 | 64 | 1014.5 |
| 20260507225017 | 73 | 32 | 3.0 | 6.0 | 0.00 | 0.00 | 0.02 | 64 | 1014.5 |
| 20260507224517 | 74 | 23 | 0.0 | 3.0 | 0.00 | 0.00 | 0.02 | 64 | 1014.4 |
| 20260507224016 | 74 | 10 | 2.0 | 4.0 | 0.00 | 0.00 | 0.02 | 62 | 1014.5 |
| 20260507223517 | 74 | 24 | 0.0 | 4.0 | 0.00 | 0.00 | 0.02 | 63 | 1014.4 |
| 20260507223018 | 73 | 78 | 1.0 | 2.0 | 0.00 | 0.00 | 0.02 | 63 | 1014.5 |
| 20260507222517 | 73 | 86 | 0.0 | 3.0 | 0.00 | 0.00 | 0.02 | 64 | 1014.4 |
| 20260507222017 | 73 | 330 | 0.0 | 4.0 | 0.00 | 0.00 | 0.02 | 63 | 1014.3 |
| 20260507221517 | 72 | 264 | 2.0 | 6.0 | 0.00 | 0.00 | 0.02 | 64 | 1014.4 |
| 20260507221017 | 72 | 193 | 2.0 | 6.0 | 0.00 | 0.00 | 0.02 | 63 | 1014.5 |
| 20260507220517 | 72 | 37 | 2.0 | 7.0 | 0.00 | 0.00 | 0.02 | 64 | 1014.4 |
| 20260507220017 | 72 | 17 | 4.0 | 7.0 | 0.00 | 0.00 | 0.02 | 62 | 1014.4 |
| 20260507215517 | 73 | 52 | 3.0 | 6.0 | 0.00 | 0.00 | 0.02 | 62 | 1014.3 |
| 20260507215017 | 73 | 318 | 1.0 | 4.0 | 0.00 | 0.00 | 0.02 | 63 | 1014.4 |
| 20260507214516 | 74 | 302 | 1.0 | 4.0 | 0.00 | 0.00 | 0.02 | 63 | 1014.3 |
| 20260507214017 | 74 | 59 | 2.0 | 3.0 | 0.00 | 0.00 | 0.02 | 63 | 1014.2 |
| 20260507213517 | 73 | 16 | 0.0 | 3.0 | 0.00 | 0.00 | 0.02 | 65 | 1014.3 |
| 20260507213017 | 73 | 347 | 1.0 | 3.0 | 0.00 | 0.00 | 0.02 | 65 | 1014.3 |
| 20260507212517 | 73 | 325 | 1.0 | 7.0 | 0.00 | 0.00 | 0.02 | 64 | 1014.1 |
| 20260507212017 | 73 | 1 | 2.0 | 10.0 | 0.00 | 0.00 | 0.02 | 63 | 1014.2 |
| 20260507211517 | 72 | 339 | 2.0 | 5.0 | 0.00 | 0.00 | 0.02 | 63 | 1014.2 |
| 20260507211017 | 73 | 8 | 0.0 | 7.0 | 0.00 | 0.00 | 0.02 | 65 | 1014.0 |
| 20260507210517 | 73 | 107 | 3.0 | 3.0 | 0.00 | 0.00 | 0.02 | 66 | 1014.0 |
| 20260507210017 | 73 | 30 | 0.0 | 7.0 | 0.00 | 0.00 | 0.02 | 66 | 1014.1 |
| 20260507205517 | 72 | 312 | 4.0 | 8.0 | 0.00 | 0.00 | 0.02 | 67 | 1014.1 |
| 20260507205017 | 72 | 268 | 2.0 | 10.0 | 0.00 | 0.00 | 0.02 | 63 | 1014.2 |
| 20260507204517 | 72 | 326 | 0.0 | 6.0 | 0.00 | 0.00 | 0.02 | 64 | 1014.3 |
| 20260507204017 | 73 | 285 | 0.0 | 4.0 | 0.00 | 0.00 | 0.02 | 65 | 1014.5 |
| 20260507203517 | 73 | 318 | 3.0 | 5.0 | 0.00 | 0.00 | 0.02 | 65 | 1014.4 |
| 20260507203017 | 73 | 288 | 3.0 | 5.0 | 0.00 | 0.00 | 0.02 | 65 | 1014.4 |
| 20260507202517 | 73 | 241 | 2.0 | 5.0 | 0.00 | 0.00 | 0.02 | 66 | 1014.4 |
| 20260507202017 | 72 | 230 | 2.0 | 5.0 | 0.00 | 0.00 | 0.02 | 68 | 1014.2 |
| 20260507201517 | 72 | 227 | 1.0 | 5.0 | 0.00 | 0.00 | 0.02 | 70 | 1014.4 |
| 20260507201017 | 72 | 64 | 3.0 | 6.0 | 0.00 | 0.00 | 0.02 | 69 | 1014.4 |
| 20260507200517 | 71 | 16 | 2.0 | 5.0 | 0.00 | 0.00 | 0.02 | 70 | 1014.6 |